Météo par heure à Ali Bayramli

Ce jour, 13 Mai, Jeudi

Heure Température Précipitation Vent Pression Humidité
00:00 +17°C° 0 mm 2 m/s 758 mmHg 71%
01:00 +16°C° 0 mm 2 m/s 758 mmHg 71%
02:00 +16°C° 0 mm 2 m/s 758 mmHg 72%
03:00 +16°C° 0 mm 2 m/s 758 mmHg 73%
04:00 +16°C° 0 mm 2 m/s 759 mmHg 70%
05:00 +18°C° 0 mm 1 m/s 759 mmHg 68%
06:00 +18°C° 0 mm 1 m/s 759 mmHg 66%
07:00 +20°C° 0 mm 1 m/s 759 mmHg 59%
08:00 +22°C° 0 mm 1 m/s 759 mmHg 53%
09:00 +24°C° 0 mm 1 m/s 759 mmHg 46%
10:00 +25°C° 0 mm 1 m/s 759 mmHg 42%
11:00 +27°C° 0 mm 1 m/s 759 mmHg 38%
12:00 +29°C° 0 mm 1 m/s 758 mmHg 34%
13:00 +30°C° 0 mm 1 m/s 758 mmHg 33%
14:00 +30°C° 0 mm 2 m/s 757 mmHg 32%
15:00 +31°C° 0 mm 3 m/s 757 mmHg 31%
16:00 +30°C° 0 mm 3 m/s 757 mmHg 35%
17:00 +29°C° 0 mm 4 m/s 758 mmHg 39%
18:00 +27°C° 0 mm 4 m/s 758 mmHg 43%
19:00 +26°C° 0 mm 4 m/s 758 mmHg 48%
20:00 +24°C° 0 mm 3 m/s 759 mmHg 52%
21:00 +21°C° 0 mm 2 m/s 759 mmHg 57%
22:00 +21°C° 0 mm 2 m/s 759 mmHg 58%
23:00 +20°C° 0 mm 2 m/s 758 mmHg 60%

Demain, 14 Mai, Vendredi

Heure Température Précipitation Vent Pression Humidité
00:00 +21°C° 0 mm 1 m/s 758 mmHg 61%
01:00 +21°C° 0 mm 1 m/s 758 mmHg 62%
02:00 +20°C° 0 mm 1 m/s 758 mmHg 64%
03:00 +20°C° 0 mm 1 m/s 758 mmHg 65%
04:00 +20°C° 0 mm 1 m/s 759 mmHg 63%
05:00 +19°C° 0 mm 0 m/s 759 mmHg 61%
06:00 +20°C° 0 mm 0 m/s 759 mmHg 59%
07:00 +22°C° 0 mm 0 m/s 759 mmHg 52%
08:00 +26°C° 0 mm 1 m/s 759 mmHg 44%
09:00 +28°C° 0 mm 1 m/s 759 mmHg 37%
10:00 +29°C° 0 mm 1 m/s 759 mmHg 33%
11:00 +31°C° 0 mm 2 m/s 759 mmHg 29%
12:00 +34°C° 0 mm 2 m/s 759 mmHg 25%
13:00 +34°C° 0 mm 4 m/s 758 mmHg 25%
14:00 +34°C° 0 mm 5 m/s 758 mmHg 25%
15:00 +34°C° 0 mm 6 m/s 758 mmHg 25%
16:00 +32°C° 0 mm 6 m/s 758 mmHg 29%
17:00 +29°C° 0 mm 5 m/s 758 mmHg 32%
18:00 +27°C° 0 mm 4 m/s 758 mmHg 35%
19:00 +26°C° 0 mm 4 m/s 758 mmHg 40%
20:00 +24°C° 0 mm 3 m/s 758 mmHg 44%
21:00 +23°C° 0 mm 2 m/s 759 mmHg 48%
22:00 +21°C° 0 mm 2 m/s 758 mmHg 48%
23:00 +21°C° 0 mm 2 m/s 758 mmHg 48%

Après-demain, 15 Mai, Samedi

Heure Température Précipitation Vent Pression Humidité
00:00 +20°C° 0 mm 2 m/s 758 mmHg 49%
01:00 +20°C° 0 mm 2 m/s 758 mmHg 48%
02:00 +20°C° 0 mm 2 m/s 758 mmHg 46%
03:00 +19°C° 0 mm 2 m/s 758 mmHg 45%
04:00 +21°C° 0 mm 1 m/s 758 mmHg 44%
05:00 +22°C° 0 mm 1 m/s 758 mmHg 44%
06:00 +23°C° 0 mm 1 m/s 759 mmHg 43%
07:00 +23°C° 0 mm 0 m/s 759 mmHg 37%
08:00 +25°C° 0 mm 0 m/s 759 mmHg 31%
09:00 +27°C° 0 mm 0 m/s 759 mmHg 25%
10:00 +30°C° 0 mm 1 m/s 758 mmHg 21%
11:00 +32°C° 0 mm 1 m/s 758 mmHg 17%
12:00 +34°C° 0 mm 2 m/s 758 mmHg 13%
13:00 +34°C° 0 mm 3 m/s 758 mmHg 12%
14:00 +35°C° 0 mm 4 m/s 757 mmHg 11%
15:00 +35°C° 0 mm 5 m/s 757 mmHg 10%
16:00 +33°C° 0 mm 5 m/s 757 mmHg 13%
17:00 +32°C° 0 mm 4 m/s 757 mmHg 16%
18:00 +29°C° 0 mm 4 m/s 757 mmHg 18%
19:00 +28°C° 0 mm 3 m/s 757 mmHg 21%
20:00 +26°C° 0 mm 3 m/s 757 mmHg 24%
21:00 +24°C° 0 mm 2 m/s 757 mmHg 27%
22:00 +24°C° 0 mm 2 m/s 757 mmHg 29%
23:00 +23°C° 0 mm 2 m/s 757 mmHg 31%

16 Mai, Dimanche

Heure Température Précipitation Vent Pression Humidité
00:00 +22°C° 0 mm 1 m/s 757 mmHg 34%
01:00 +22°C° 0 mm 1 m/s 757 mmHg 35%
02:00 +21°C° 0 mm 1 m/s 757 mmHg 36%
03:00 +21°C° 0 mm 1 m/s 757 mmHg 37%
04:00 +22°C° 0 mm 1 m/s 757 mmHg 36%
05:00 +23°C° 0 mm 1 m/s 757 mmHg 34%
06:00 +24°C° 0 mm 1 m/s 757 mmHg 32%
07:00 +26°C° 0 mm 1 m/s 757 mmHg 28%
08:00 +28°C° 0 mm 1 m/s 757 mmHg 25%
09:00 +27°C° 0 mm 0 m/s 757 mmHg 21%
10:00 +31°C° 0 mm 1 m/s 756 mmHg 20%
11:00 +32°C° 0 mm 2 m/s 756 mmHg 19%
12:00 +34°C° 0 mm 3 m/s 756 mmHg 17%
13:00 +34°C° 0 mm 4 m/s 755 mmHg 17%
14:00 +34°C° 0 mm 5 m/s 755 mmHg 17%
15:00 +34°C° 0 mm 6 m/s 755 mmHg 17%
16:00 +33°C° 0 mm 6 m/s 755 mmHg 20%
17:00 +30°C° 0 mm 5 m/s 755 mmHg 23%
18:00 +28°C° 0 mm 5 m/s 755 mmHg 26%
19:00 +26°C° 0 mm 4 m/s 755 mmHg 32%
20:00 +25°C° 0 mm 3 m/s 755 mmHg 38%
21:00 +22°C° 0 mm 3 m/s 755 mmHg 44%
22:00 +21°C° 0 mm 2 m/s 755 mmHg 44%
23:00 +21°C° 0 mm 2 m/s 755 mmHg 45%

17 Mai, Lundi

Heure Température Précipitation Vent Pression Humidité
00:00 +20°C° 0 mm 2 m/s 754 mmHg 46%
01:00 +20°C° 0 mm 2 m/s 754 mmHg 47%
02:00 +21°C° 0 mm 1 m/s 754 mmHg 47%
03:00 +20°C° 0 mm 1 m/s 754 mmHg 47%
04:00 +21°C° 0 mm 1 m/s 754 mmHg 46%
05:00 +22°C° 0 mm 1 m/s 754 mmHg 45%
06:00 +21°C° 0 mm 2 m/s 754 mmHg 44%
07:00 +24°C° 0 mm 2 m/s 754 mmHg 41%
08:00 +26°C° 0 mm 3 m/s 754 mmHg 37%
09:00 +28°C° 0 mm 3 m/s 754 mmHg 33%
10:00 +29°C° 0 mm 4 m/s 754 mmHg 30%
11:00 +32°C° 0 mm 4 m/s 753 mmHg 28%
12:00 +34°C° 0 mm 5 m/s 753 mmHg 26%
13:00 +34°C° 0 mm 5 m/s 753 mmHg 26%
14:00 +34°C° 0 mm 6 m/s 752 mmHg 26%
15:00 +34°C° 0 mm 6 m/s 752 mmHg 26%
16:00 +33°C° 0 mm 6 m/s 752 mmHg 29%
17:00 +30°C° 0 mm 5 m/s 752 mmHg 31%
18:00 +29°C° 0 mm 5 m/s 752 mmHg 34%
19:00 +27°C° 0 mm 4 m/s 753 mmHg 38%
20:00 +25°C° 0 mm 3 m/s 753 mmHg 42%
21:00 +24°C° 0 mm 2 m/s 753 mmHg 46%
22:00 +23°C° 0 mm 2 m/s 753 mmHg 48%
23:00 +23°C° 0 mm 1 m/s 753 mmHg 49%

18 Mai, Mardi

Heure Température Précipitation Vent Pression Humidité
00:00 +23°C° 0 mm 1 m/s 752 mmHg 50%
01:00 +23°C° 0 mm 1 m/s 752 mmHg 49%
02:00 +23°C° 0 mm 1 m/s 752 mmHg 48%
03:00 +23°C° 0 mm 2 m/s 751 mmHg 47%
04:00 +23°C° 0 mm 2 m/s 752 mmHg 46%
05:00 +24°C° 0 mm 2 m/s 752 mmHg 45%
06:00 +24°C° 0 mm 3 m/s 753 mmHg 44%
07:00 +26°C° 0 mm 4 m/s 753 mmHg 40%
08:00 +28°C° 0 mm 4 m/s 753 mmHg 35%
09:00 +30°C° 0 mm 5 m/s 753 mmHg 30%
10:00 +32°C° 0 mm 5 m/s 753 mmHg 27%
11:00 +33°C° 0 mm 5 m/s 753 mmHg 23%
12:00 +35°C° 0 mm 5 m/s 753 mmHg 20%
13:00 +33°C° 0.1 mm 5 m/s 753 mmHg 25%
14:00 +32°C° 0.1 mm 4 m/s 753 mmHg 31%
15:00 +29°C° 0.1 mm 4 m/s 753 mmHg 36%
16:00 +28°C° 0.4 mm 3 m/s 754 mmHg 40%
17:00 +28°C° 0.4 mm 3 m/s 754 mmHg 44%
18:00 +27°C° 0.4 mm 3 m/s 755 mmHg 48%
19:00 +26°C° 0.1 mm 2 m/s 755 mmHg 52%
20:00 +25°C° 0.1 mm 2 m/s 756 mmHg 56%
21:00 +24°C° 0.1 mm 2 m/s 756 mmHg 60%
22:00 +23°C° 0 mm 2 m/s 756 mmHg 61%
23:00 +23°C° 0 mm 2 m/s 756 mmHg 62%
Voir plus

Nous avons besoin de votre consentement

Meteoprog et ses fournisseurs de services peuvent stocker et accéder à des données personnelles telles que des cookies, des identifiants d'appareils ou d'autres technologies similaires sur votre appareil et traiter ces données pour personnaliser le contenu et les publicités, ainsi que pour fournir des fonctionnalités de médias sociaux et analyser le trafic.

  • Stocker et/ou accéder à des informations sur votre appareil

    Des cookies, des identifiants d'appareils ou d'autres informations peuvent être stockés ou accessibles sur votre appareil aux fins indiquées ci-dessus.

  • Annonces et contenus personnalisés, mesure des annonces et des contenus, connaissance de l'audience et développement de produits

    Les annonces et le contenu peuvent être personnalisés en fonction d'un profil. D'autres données peuvent être ajoutées pour mieux personnaliser les annonces et le contenu. Les performances des publicités et du contenu peuvent être mesurées. Il est possible d'obtenir des informations sur le public qui a vu les publicités et le contenu. Ces données peuvent être utilisées pour développer ou améliorer l'expérience de l'utilisateur, les systèmes et les logiciels.

En cliquant sur "J'accepte", vous autorisez l'utilisation de cookies, des identifiants d'appareils, des balises web ou d'autres technologies similaires. Vos paramètres peuvent être modifiés dans le navigateur de votre appareil.

Dans certains cas, des intérêts légitimes peuvent être invoqués plutôt qu'un consentement. Vous pouvez en savoir plus à ce sujet dans notre Politique de confidentialité et de cookies.